Regional Weather Roundup
Issued by NWS Mobile, AL

Home | Current Version | Previous Version | Text Only | Print | Product List | Glossary On
Versions: 1 2 3 4 5 6 7 8 9 10 11 12 13 14 15 16 17 18 19 20 21 22 23 24 25 26 27 28 29 30 31 32 33 34 35 36 37 38 39 40 41 42 43 44 45 46 47 48 49 50
000
ASUS44 KMOB 192316
RWRMOB
REGIONAL WEATHER ROUNDUP
NATIONAL WEATHER SERVICE MOBILE AL
600 PM CDT SUN APR 19 2015

ALZ061>064-200000-
COASTAL ALABAMA


CITY           SKY/WX    TMP DP  RH WIND       PRES   REMARKS
MOBILE REG APT MOSUNNY   79  65  62 SW14      29.78R
BROOKLEY FIELD MOSUNNY   79  67  66 VRB6      29.78S
GULF SHORES    CLEAR     76  70  80 SW7       29.79S

$$

ALZ051>060-200000-
INTERIOR SOUTHWEST AND SOUTH CENTRAL ALABAMA


CITY           SKY/WX    TMP DP  RH WIND       PRES   REMARKS
ANDALUSIA/OPP  NOT AVBL
EVERGREEN      SUNNY     80  64  58 SW7       29.76R
FLORALA        PTCLDY    75  68  78 S12       29.79F
GREENVILLE     FAIR      77  66  68 SW7       29.74S

$$

FLZ001>006-200000-
WESTERN FLORIDA PANHANDLE


CITY           SKY/WX    TMP DP  RH WIND       PRES   REMARKS
CRESTVIEW      MOSUNNY   77  68  73 S13       29.80S
DESTIN         PTSUNNY   76  69  79 VRB6      29.81S
DUKE FIELD     FAIR      76  68  76 SW13      29.79S
MARY ESTHER    MOSUNNY   75  65  71 SW13      29.79F
MILTON         PTCLDY    79  68  69 S8        29.78S
PENSACOLA      MOSUNNY   77  68  73 SW13      29.78S
NAS PENSACOLA  MOSUNNY   76  71  85 SW13      29.78F
VALPARAISO     CLOUDY    75  70  82 S13       29.80F

$$

...MARINE OBSERVATIONS...

STATION/POSITION TIME  SKY/WX   TEMP    WIND        PRES    VSBY
                                AIR SEA DIR/SP/G
                 (UTC)          (F)     (DEG/KT/KT) (MB)    (MI)
PASCAGOULA       2200            78     210/  7/ 11 1008.1F
PETIT BOIS ISL   2200            76     220/ 16/ 18 1008.6F
E DAUPHIN ISLAND 2300            76     220/ 10/ 12 1008.2S
MIDDLE BAY LIGHT 2200            72     210/ 15     1008.1S
USCG MOBILE BAY  2200            80 72  210/  7/ 12 1007.0R
STATE DOCKS      2212            80 71              1007.6R
MEAHER PARK      2300            75     160/ 12     1007.8S
FORT MORGAN      2200            75     250/ 16/ 18 1008.2F
12 S ORANGE BCH  2250            75 74  210/ 10/ 10 1008.0F
WVE H/P(F/S)=  4/ 7

PENSACOLA BAY    2200            79 74  180/  7/ 10 1009.0R
64 S DAUPHIN ISL 2250            75 75  260/ 10/ 10 1009.3S
WVE H/P(F/S)=  5/ 8

67 S FORT MORGAN 2230            74                 1009.8R
115 SE PENSACOLA 2250            75 76  190/ 14/ 16 1010.6F
WVE H/P(F/S)=  4/ 6

MID GULF/42001   2250            81 81  210/ 10/ 12 1010.1F
WVE H/P(F/S)=  5/ 7

EAST GULF/42003  2250            80 80  280/  6/  6 1012.1R
WVE H/P(F/S)=  4/ 6


$$

...NEARBY LOCATIONS

CITY           SKY/WX    TMP DP  RH WIND       PRES   REMARKS
GULFPORT       SUNNY     82  59  45 SW6       29.75S
BILOXI         SUNNY     81  63  53 W10G20    29.76S
PASCAGOULA     SUNNY     78  70  76 SW7       29.77S
HATTIESBURG    SUNNY     84  54  35 SW10      29.75R
LAUREL         SUNNY     81  55  41 W3        29.76S
MERIDIAN       SUNNY     79  55  43 W7        29.72F
MERIDIAN NAS   SUNNY     79  55  43 W8        29.72S
MONTGOMERY     MOSUNNY   79  67  66 S7G16     29.72S
MAXWELL AFB    MOSUNNY   78  69  72 S10       29.72S
TROY           SUNNY     76  68  76 S7        29.77F
FORT RUCKER    MOSUNNY   75  66  73 S14       29.77F
DALEVILLE      SUNNY     75  63  65 S12       29.79S
DOTHAN         SUNNY     75  64  68 SW13G22   29.82F

$$

...OTHER SURROUNDING LOCATIONS...

CITY           SKY/WX    TMP DP  RH WIND       PRES   REMARKS
BIRMINGHAM     MOSUNNY   73  61  65 W14G26    29.72R
TUSCALOOSA     SUNNY     78  58  49 SW12      29.70S
COLUMBUS GA    PTSUNNY   71  65  81 SW13      29.76R
PANAMA CITY    NOT AVBL
TALLAHASSEE    PTSUNNY   72  67  84 S7        29.84S
BATON ROUGE    MOSUNNY   81  61  50 SW13      29.75S
NEW ORLEANS    MOSUNNY   82  62  50 SW13      29.77S
SLIDELL        SUNNY     82  60  47 SW9       29.76S
JACKSON        SUNNY     79  61  53 SW8       29.70F
MCCOMB         SUNNY     80  61  52 SW10      29.75S

$$

...SURROUNDING MARINE OBSERVATIONS...

STATION/POSITION TIME  SKY/WX   TEMP    WIND        PRES    VSBY
                                AIR SEA DIR/SP/G
                 (UTC)          (F)     (DEG/KT/KT) (MB)    (MI)
WAVELAND         2200            83 75  260/ 10/ 13 1007.9R
PASCAGOULA RGN A 2200            78     210/ 12/ 16 1007.9S
PASCAGOULA PORT  2200               76                N/A
GRAND ISLE       2200            80 77  250/  7/ 13 1009.0S
SOUTHWEST PASS   2300            74     240/  8/  9 1009.6R
PILOT STATION E  2200            74 64  240/  8/  9 1009.6F
SHELL BEACH      2200            80 77  270/  4/  6 1007.9S
PANAMA CITY      2200            74 75  180/  9/ 12 1009.6R
APALACHICOLA     2200            73 73  190/  9/ 10 1010.8R
TYNDALL TOWER C  2300            71     160/ 10/ 10 1010.7F
S APLCHCLA/42036 2250            74 76  190/  4/  6 1011.8F
WVE H/P(F/S)=  4/ 5


$$



USA.gov is the U.S. government's official web portal to all federal, state and local government web resources and services.